• în România
  • Lista ţărilor
  • Pe 7 zile
  • Temperatura apei
  • Hartă satelitară
  • Meteo pe hartă
  • Widget-uri
  • user-avatar
    Intrare

    Meteo pe oră la Graz

    Astăzi, 22 Mai, Marţi

    Timp Temperatura Precipitaţii Vânt Presiune Umiditate
    00:00 +13°C° 0 mm 1 m/s 723 mmHg 91%
    01:00 +13°C° 0 mm 1 m/s 722 mmHg 91%
    02:00 +12°C° 0 mm 1 m/s 722 mmHg 92%
    03:00 +12°C° 0 mm 1 m/s 722 mmHg 92%
    04:00 +12°C° 0 mm 1 m/s 722 mmHg 93%
    05:00 +13°C° 0 mm 1 m/s 722 mmHg 89%
    06:00 +15°C° 0 mm 1 m/s 722 mmHg 86%
    07:00 +15°C° 0 mm 0 m/s 722 mmHg 82%
    08:00 +19°C° 0,1 mm 1 m/s 723 mmHg 78%
    09:00 +20°C° 0,1 mm 1 m/s 723 mmHg 73%
    10:00 +21°C° 0,1 mm 1 m/s 723 mmHg 69%
    11:00 +21°C° 0,3 mm 1 m/s 723 mmHg 69%
    12:00 +20°C° 0,3 mm 2 m/s 723 mmHg 70%
    13:00 +21°C° 0,3 mm 2 m/s 723 mmHg 70%
    14:00 +21°C° 0,1 mm 2 m/s 723 mmHg 68%
    15:00 +21°C° 0,1 mm 2 m/s 722 mmHg 66%
    16:00 +23°C° 0,1 mm 2 m/s 722 mmHg 64%
    17:00 +21°C° 0,1 mm 1 m/s 722 mmHg 71%
    18:00 +20°C° 0,1 mm 1 m/s 722 mmHg 78%
    19:00 +19°C° 0,1 mm 1 m/s 722 mmHg 85%
    20:00 +18°C° 0 mm 1 m/s 722 mmHg 88%
    21:00 +16°C° 0 mm 1 m/s 723 mmHg 92%
    22:00 +15°C° 0 mm 1 m/s 723 mmHg 95%
    23:00 +14°C° 0 mm 1 m/s 723 mmHg 95%

    Mâine, 23 Mai, Miercuri

    Timp Temperatura Precipitaţii Vânt Presiune Umiditate
    00:00 +14°C° 0 mm 1 m/s 723 mmHg 95%
    01:00 +14°C° 0 mm 1 m/s 723 mmHg 96%
    02:00 +13°C° 0 mm 1 m/s 723 mmHg 96%
    03:00 +13°C° 0 mm 1 m/s 723 mmHg 95%
    04:00 +13°C° 0 mm 1 m/s 723 mmHg 95%
    05:00 +15°C° 0 mm 1 m/s 724 mmHg 90%
    06:00 +16°C° 0 mm 1 m/s 724 mmHg 85%
    07:00 +17°C° 0 mm 0 m/s 724 mmHg 79%
    08:00 +21°C° 0 mm 1 m/s 725 mmHg 71%
    09:00 +24°C° 0 mm 1 m/s 725 mmHg 62%
    10:00 +26°C° 0 mm 1 m/s 725 mmHg 53%
    11:00 +26°C° 0,2 mm 1 m/s 725 mmHg 53%
    12:00 +26°C° 0,2 mm 1 m/s 725 mmHg 53%
    13:00 +26°C° 0,2 mm 2 m/s 725 mmHg 53%
    14:00 +26°C° 0,4 mm 1 m/s 725 mmHg 55%
    15:00 +26°C° 0,4 mm 1 m/s 725 mmHg 56%
    16:00 +26°C° 0,4 mm 1 m/s 724 mmHg 58%
    17:00 +24°C° 0,3 mm 1 m/s 724 mmHg 65%
    18:00 +23°C° 0,3 mm 1 m/s 724 mmHg 72%
    19:00 +21°C° 0,3 mm 1 m/s 724 mmHg 79%
    20:00 +20°C° 0,4 mm 1 m/s 725 mmHg 82%
    21:00 +19°C° 0,4 mm 1 m/s 725 mmHg 85%
    22:00 +18°C° 0,4 mm 1 m/s 725 mmHg 88%
    23:00 +16°C° 0,3 mm 1 m/s 725 mmHg 89%

    Poimâine, 24 Mai, Joi

    Timp Temperatura Precipitaţii Vânt Presiune Umiditate
    00:00 +16°C° 0,3 mm 1 m/s 725 mmHg 90%
    01:00 +15°C° 0,3 mm 1 m/s 725 mmHg 91%
    02:00 +15°C° 0 mm 1 m/s 725 mmHg 92%
    03:00 +15°C° 0 mm 1 m/s 725 mmHg 92%
    04:00 +15°C° 0 mm 1 m/s 725 mmHg 93%
    05:00 +16°C° 0 mm 1 m/s 725 mmHg 88%
    06:00 +19°C° 0 mm 1 m/s 726 mmHg 84%
    07:00 +19°C° 0 mm 0 m/s 726 mmHg 79%
    08:00 +23°C° 0,2 mm 1 m/s 726 mmHg 72%
    09:00 +24°C° 0,2 mm 1 m/s 726 mmHg 66%
    10:00 +26°C° 0,2 mm 1 m/s 726 mmHg 60%
    11:00 +26°C° 0,8 mm 1 m/s 726 mmHg 61%
    12:00 +26°C° 0,8 mm 2 m/s 726 mmHg 62%
    13:00 +26°C° 0,8 mm 2 m/s 725 mmHg 63%
    14:00 +26°C° 0,9 mm 2 m/s 725 mmHg 65%
    15:00 +25°C° 0,9 mm 1 m/s 725 mmHg 66%
    16:00 +25°C° 0,9 mm 1 m/s 724 mmHg 68%
    17:00 +24°C° 0,5 mm 1 m/s 725 mmHg 74%
    18:00 +23°C° 0,5 mm 1 m/s 725 mmHg 80%
    19:00 +21°C° 0,5 mm 1 m/s 725 mmHg 85%
    20:00 +20°C° 1 mm 1 m/s 725 mmHg 88%
    21:00 +19°C° 1 mm 1 m/s 725 mmHg 90%
    22:00 +19°C° 1 mm 1 m/s 725 mmHg 92%
    23:00 +18°C° 0,4 mm 1 m/s 725 mmHg 92%

    25 Mai, Vineri

    Timp Temperatura Precipitaţii Vânt Presiune Umiditate
    00:00 +18°C° 0,4 mm 1 m/s 725 mmHg 92%
    01:00 +18°C° 0,4 mm 1 m/s 725 mmHg 93%
    02:00 +18°C° 0,3 mm 1 m/s 725 mmHg 93%
    03:00 +16°C° 0,3 mm 1 m/s 725 mmHg 93%
    04:00 +16°C° 0,3 mm 1 m/s 725 mmHg 94%
    05:00 +18°C° 0,4 mm 1 m/s 726 mmHg 91%
    06:00 +19°C° 0,4 mm 1 m/s 726 mmHg 89%
    07:00 +19°C° 0,4 mm 0 m/s 726 mmHg 86%
    08:00 +22°C° 0,5 mm 1 m/s 726 mmHg 81%
    09:00 +24°C° 0,5 mm 1 m/s 726 mmHg 76%
    10:00 +25°C° 0,5 mm 1 m/s 727 mmHg 72%
    11:00 +25°C° 0,9 mm 1 m/s 726 mmHg 69%
    12:00 +26°C° 0,9 mm 1 m/s 726 mmHg 67%
    13:00 +26°C° 0,9 mm 1 m/s 726 mmHg 65%
    14:00 +26°C° 0,7 mm 1 m/s 726 mmHg 68%
    15:00 +25°C° 0,7 mm 1 m/s 726 mmHg 70%
    16:00 +25°C° 0,7 mm 1 m/s 726 mmHg 72%
    17:00 +24°C° 0,4 mm 1 m/s 726 mmHg 77%
    18:00 +23°C° 0,4 mm 1 m/s 726 mmHg 82%
    19:00 +22°C° 0,4 mm 1 m/s 726 mmHg 86%
    20:00 +21°C° 0,7 mm 1 m/s 726 mmHg 88%
    21:00 +20°C° 0,7 mm 1 m/s 726 mmHg 90%
    22:00 +19°C° 0,7 mm 1 m/s 727 mmHg 92%
    23:00 +18°C° 0,4 mm 1 m/s 727 mmHg 92%

    26 Mai, Sâmbătă

    Timp Temperatura Precipitaţii Vânt Presiune Umiditate
    00:00 +18°C° 0,4 mm 1 m/s 727 mmHg 93%
    01:00 +16°C° 0,4 mm 1 m/s 727 mmHg 93%
    02:00 +16°C° 0,4 mm 1 m/s 727 mmHg 93%
    03:00 +16°C° 0,4 mm 1 m/s 727 mmHg 93%
    04:00 +15°C° 0,4 mm 1 m/s 727 mmHg 93%
    05:00 +18°C° 0,2 mm 1 m/s 727 mmHg 90%
    06:00 +20°C° 0,2 mm 1 m/s 728 mmHg 86%
    07:00 +19°C° 0,2 mm 0 m/s 728 mmHg 82%
    08:00 +23°C° 0,6 mm 1 m/s 728 mmHg 78%
    09:00 +24°C° 0,6 mm 1 m/s 728 mmHg 73%
    10:00 +26°C° 0,6 mm 1 m/s 728 mmHg 68%
    11:00 +26°C° 1,1 mm 1 m/s 728 mmHg 68%
    12:00 +26°C° 1,1 mm 1 m/s 728 mmHg 67%
    13:00 +26°C° 1,1 mm 2 m/s 728 mmHg 67%
    14:00 +26°C° 0,9 mm 2 m/s 728 mmHg 69%
    15:00 +25°C° 0,9 mm 2 m/s 728 mmHg 70%
    16:00 +25°C° 0,9 mm 2 m/s 728 mmHg 72%
    17:00 +24°C° 0,3 mm 1 m/s 728 mmHg 76%
    18:00 +23°C° 0,3 mm 1 m/s 728 mmHg 81%
    19:00 +22°C° 0,3 mm 1 m/s 728 mmHg 86%
    20:00 +21°C° 0,6 mm 1 m/s 728 mmHg 88%
    21:00 +20°C° 0,6 mm 1 m/s 729 mmHg 90%
    22:00 +17°C° 0,6 mm 0 m/s 729 mmHg 92%
    23:00 +18°C° 0,3 mm 1 m/s 729 mmHg 92%

    27 Mai, Duminică

    Timp Temperatura Precipitaţii Vânt Presiune Umiditate
    00:00 +18°C° 0,3 mm 1 m/s 729 mmHg 93%
    01:00 +16°C° 0,3 mm 1 m/s 729 mmHg 93%
    02:00 +16°C° 0,1 mm 1 m/s 729 mmHg 93%
    03:00 +16°C° 0,1 mm 1 m/s 729 mmHg 93%
    04:00 +16°C° 0,1 mm 1 m/s 729 mmHg 93%
    05:00 +18°C° 0 mm 1 m/s 729 mmHg 89%
    06:00 +20°C° 0 mm 1 m/s 729 mmHg 86%
    07:00 +21°C° 0 mm 1 m/s 729 mmHg 82%
    08:00 +23°C° 0,1 mm 1 m/s 729 mmHg 75%
    09:00 +25°C° 0,1 mm 1 m/s 729 mmHg 69%
    10:00 +26°C° 0,1 mm 1 m/s 729 mmHg 62%
    11:00 +26°C° 0,5 mm 1 m/s 729 mmHg 62%
    12:00 +27°C° 0,5 mm 2 m/s 729 mmHg 62%
    13:00 +27°C° 0,5 mm 2 m/s 729 mmHg 62%
    14:00 +27°C° 0,4 mm 2 m/s 728 mmHg 62%
    15:00 +27°C° 0,4 mm 2 m/s 728 mmHg 63%
    16:00 +26°C° 0,4 mm 2 m/s 728 mmHg 63%
    17:00 +25°C° 0,1 mm 1 m/s 728 mmHg 70%
    18:00 +24°C° 0,1 mm 1 m/s 728 mmHg 76%
    19:00 +22°C° 0,1 mm 1 m/s 728 mmHg 83%
    20:00 +21°C° 0,3 mm 1 m/s 728 mmHg 86%
    21:00 +20°C° 0,3 mm 1 m/s 728 mmHg 90%
    22:00 +17°C° 0,3 mm 0 m/s 728 mmHg 93%
    23:00 +16°C° 0 mm 0 m/s 728 mmHg 94%
    Arată mai mult